User: anonymous   Login
Location: Peebles
(55.6412°N, 3.1714°W)
Time: 07:44:55
(UTC+00:00)
Language:

USA 305 - Orbit

View from above orbital plane
View from above orbital plane
View from above satellite
View from above satellite

Ground track
Ground track

The orbit data is extracted from the following two-line orbital elements,

1 45873U 20046A   21332.74156572 0.00003500  00000-0  27660-3 0    02
2 45873  53.9306 270.2211 0005057  23.9313 336.0686 15.00204311    07
Epoch (UTC): 28 November 2021 17:47:51
Eccentricity: 0.0005057
inclination: 53.9306°
perigee height: 563 km
apogee height: 570 km
right ascension of ascending node: 270.2211°
argument of perigee: 23.9313°
revolutions per day: 15.00204311
mean anomaly at epoch: 336.0686°
orbit number at epoch: 0

The dashed part of the orbit path shows where the satellite is in the earth's shadow,  

DLR